TimeEDT,TemperatureF,Dew PointF,Humidity,Sea Level PressureIn,VisibilityMPH,Wind Direction,Wind SpeedMPH,Gust SpeedMPH,PrecipitationIn,Events,Conditions,WindDirDegrees,DateUTC
12:54 AM,54.0,52.0,93,30.11,6.0,SW,3.5,-,N/A,,Clear,230,2013-10-03 04:54:00
12:57 AM,53.6,51.8,94,30.10,1.0,SW,3.5,-,N/A,,Mist,220,2013-10-03 04:57:00
1:06 AM,53.6,51.8,94,30.10,2.0,SW,4.6,-,N/A,,Scattered Clouds,230,2013-10-03 05:06:00
1:54 AM,52.0,51.1,97,30.11,7.0,SW,3.5,-,N/A,Fog,Patches of Fog,230,2013-10-03 05:54:00
2:25 AM,51.8,51.8,100,30.10,1.5,Calm,Calm,-,N/A,,Partly Cloudy,0,2013-10-03 06:25:00
2:51 AM,48.2,48.2,100,30.10,0.2,SW,5.8,-,N/A,Fog,Fog,230,2013-10-03 06:51:00
2:54 AM,48.9,48.0,97,30.11,0.2,WSW,4.6,-,N/A,Fog,Fog,240,2013-10-03 06:54:00
3:33 AM,50.0,48.2,94,30.10,2.0,SW,3.5,-,N/A,,Partly Cloudy,230,2013-10-03 07:33:00
3:51 AM,48.2,48.2,100,30.10,1.8,WSW,3.5,-,N/A,,Mostly Cloudy,240,2013-10-03 07:51:00
3:54 AM,48.9,48.0,97,30.11,1.8,WSW,3.5,-,N/A,,Overcast,240,2013-10-03 07:54:00
4:54 AM,48.9,46.9,93,30.11,7.0,WSW,4.6,-,N/A,Fog,Shallow Fog,240,2013-10-03 08:54:00
5:54 AM,48.0,46.9,96,30.12,7.0,SW,4.6,-,N/A,Fog,Shallow Fog,230,2013-10-03 09:54:00
6:54 AM,48.9,48.0,97,30.13,6.0,WSW,4.6,-,N/A,,Scattered Clouds,250,2013-10-03 10:54:00
7:54 AM,48.9,48.0,97,30.14,6.0,SW,4.6,-,N/A,,Scattered Clouds,230,2013-10-03 11:54:00
8:54 AM,55.0,52.0,89,30.16,10.0,SW,5.8,-,N/A,,Scattered Clouds,230,2013-10-03 12:54:00
9:54 AM,59.0,52.0,78,30.15,10.0,SW,4.6,-,N/A,,Scattered Clouds,230,2013-10-03 13:54:00
10:54 AM,64.0,51.1,63,30.14,10.0,Calm,Calm,-,N/A,,Scattered Clouds,0,2013-10-03 14:54:00
11:54 AM,68.0,46.9,47,30.13,10.0,Calm,Calm,-,N/A,,Scattered Clouds,0,2013-10-03 15:54:00
12:54 PM,70.0,46.0,42,30.11,10.0,Calm,Calm,-,N/A,,Mostly Cloudy,0,2013-10-03 16:54:00
1:54 PM,71.1,41.0,34,30.08,10.0,South,3.5,-,N/A,,Mostly Cloudy,190,2013-10-03 17:54:00
2:54 PM,72.0,39.0,30,30.07,9.0,Calm,Calm,-,N/A,,Overcast,0,2013-10-03 18:54:00
3:54 PM,72.0,39.9,31,30.05,10.0,Calm,Calm,-,N/A,,Mostly Cloudy,0,2013-10-03 19:54:00
4:54 PM,73.0,39.0,29,30.05,10.0,Calm,Calm,-,N/A,,Overcast,0,2013-10-03 20:54:00
5:54 PM,68.0,54.0,61,30.05,10.0,NNE,6.9,-,N/A,,Overcast,30,2013-10-03 21:54:00
6:54 PM,64.0,55.0,73,30.05,10.0,ENE,5.8,-,N/A,,Mostly Cloudy,60,2013-10-03 22:54:00
7:54 PM,64.0,57.0,78,30.06,10.0,ENE,5.8,-,N/A,,Overcast,70,2013-10-03 23:54:00
8:54 PM,64.0,57.9,80,30.05,10.0,East,4.6,-,0.00,,Overcast,90,2013-10-04 00:54:00
9:54 PM,63.0,55.0,75,30.06,10.0,East,4.6,-,0.00,,Mostly Cloudy,100,2013-10-04 01:54:00
10:54 PM,61.0,54.0,78,30.05,10.0,ESE,5.8,-,0.01,,Mostly Cloudy,110,2013-10-04 02:54:00